This is the latest recevied weather packets stored in our database for station/object W7TJC. If no packets are shown the sender has not sent any weather packets the latest 10 day(s).
| Time | Temp. | Humidity | Pressure | Rain* | Wind** | Luminosity | Snow |
|---|---|---|---|---|---|---|---|
| 1777664342 | 21.11° C | 52% | 1017.1 hPa | 0 mm | - | 598 W/m² | - |
| 1777664041 | 21.11° C | 51% | 1017.3 hPa | 0 mm | - | 672 W/m² | - |
| 1777663738 | 21.11° C | 52% | 1017.3 hPa | 0 mm | - | 668 W/m² | - |
| 1777663435 | 20.56° C | 58% | 1017.4 hPa | 0 mm | - | 550 W/m² | - |
| 1777663132 | 20.56° C | 55% | 1017.6 hPa | 0 mm | - | 582 W/m² | - |
| 1777662829 | 20° C | 56% | 1017.4 hPa | 0 mm | - | 691 W/m² | - |
| 1777662526 | 19.44° C | 55% | 1017.5 hPa | 0 mm | - | 592 W/m² | - |
| 1777662222 | 18.89° C | 55% | 1017.6 hPa | 0 mm | - | 602 W/m² | - |
| 1777661917 | 18.89° C | 60% | 1017.8 hPa | 0 mm | - | 270 W/m² | - |
| 1777661613 | 18.89° C | 57% | 1017.8 hPa | 0 mm | - | 289 W/m² | - |
| 1777661309 | 18.89° C | 57% | 1017.8 hPa | 0 mm | - | 516 W/m² | - |
| 1777661005 | 18.89° C | 61% | 1017.7 hPa | 0 mm | - | 395 W/m² | - |
| 1777660701 | 18.89° C | 62% | 1017.8 hPa | 0 mm | - | 525 W/m² | - |
| 1777660398 | 18.33° C | 58% | 1018 hPa | 0 mm | - | 479 W/m² | - |
| 1777660094 | 18.33° C | 61% | 1017.7 hPa | 0 mm | - | 343 W/m² | - |
| 1777659792 | 17.78° C | 63% | 1017.8 hPa | 0 mm | - | 328 W/m² | - |
| 1777659489 | 17.78° C | 61% | 1017.9 hPa | 0 mm | - | 303 W/m² | - |
| 1777659186 | 18.33° C | 62% | 1017.8 hPa | 0 mm | - | 253 W/m² | - |
| 1777658883 | 17.78° C | 61% | 1017.8 hPa | 0 mm | - | 332 W/m² | - |
| 1777658579 | 18.33° C | 64% | 1018 hPa | 0 mm | - | 314 W/m² | - |
| 1777658276 | 18.33° C | 65% | 1017.8 hPa | 0 mm | - | 312 W/m² | - |
| 1777657973 | 17.78° C | 65% | 1017.7 hPa | 0 mm | - | 403 W/m² | - |
| 1777657669 | 17.22° C | 67% | 1018 hPa | 0 mm | - | 500 W/m² | - |
| 1777657367 | 17.22° C | 67% | 1018 hPa | 0 mm | - | 115 W/m² | - |
| 1777657064 | 16.67° C | 67% | 1018 hPa | 0 mm | - | 74 W/m² | - |
* Rain latest hour (hover to see other rain measurements)
** Current wind speed in m/s (hover to see current wind gust speed)